TimeEDT,TemperatureF,Dew PointF,Humidity,Sea Level PressureIn,VisibilityMPH,Wind Direction,Wind SpeedMPH,Gust SpeedMPH,PrecipitationIn,Events,Conditions,WindDirDegrees,DateUTC
12:52 AM,55.0,53.1,93,30.30,8.0,Calm,Calm,-,N/A,,Clear,0,2013-08-18 04:52:00
1:52 AM,54.0,53.1,97,30.29,8.0,Calm,Calm,-,N/A,,Clear,0,2013-08-18 05:52:00
2:52 AM,54.0,52.0,93,30.29,9.0,Calm,Calm,-,N/A,,Clear,0,2013-08-18 06:52:00
3:52 AM,53.1,52.0,96,30.30,5.0,Calm,Calm,-,N/A,,Clear,0,2013-08-18 07:52:00
4:52 AM,52.0,51.1,97,30.29,4.0,Calm,Calm,-,N/A,,Clear,0,2013-08-18 08:52:00
5:52 AM,52.0,50.0,93,30.30,10.0,Calm,Calm,-,N/A,,Clear,0,2013-08-18 09:52:00
6:52 AM,53.1,51.1,93,30.30,7.0,Calm,Calm,-,N/A,,Clear,0,2013-08-18 10:52:00
7:52 AM,55.9,54.0,93,30.31,9.0,Calm,Calm,-,N/A,,Clear,0,2013-08-18 11:52:00
8:52 AM,61.0,54.0,78,30.30,10.0,Calm,Calm,-,N/A,,Clear,0,2013-08-18 12:52:00
9:52 AM,68.0,55.0,63,30.29,10.0,Calm,Calm,-,N/A,,Clear,0,2013-08-18 13:52:00
10:52 AM,69.1,55.0,61,30.28,10.0,Calm,Calm,-,N/A,,Clear,0,2013-08-18 14:52:00
11:52 AM,70.0,57.0,63,30.27,10.0,Calm,Calm,-,N/A,,Clear,0,2013-08-18 15:52:00
12:52 PM,71.1,57.0,61,30.25,10.0,Calm,Calm,-,N/A,,Clear,0,2013-08-18 16:52:00
1:52 PM,72.0,59.0,64,30.24,10.0,Calm,Calm,-,N/A,,Clear,0,2013-08-18 17:52:00
2:52 PM,73.0,55.0,53,30.21,10.0,Calm,Calm,-,N/A,,Clear,0,2013-08-18 18:52:00
3:52 PM,72.0,57.0,59,30.19,10.0,Calm,Calm,-,N/A,,Clear,0,2013-08-18 19:52:00
4:52 PM,72.0,60.1,66,30.17,10.0,NNW,3.5,-,N/A,,Clear,330,2013-08-18 20:52:00
5:52 PM,71.1,57.9,63,30.16,10.0,Calm,Calm,-,N/A,,Clear,0,2013-08-18 21:52:00
6:52 PM,66.9,57.0,70,30.16,10.0,Calm,Calm,-,N/A,,Clear,0,2013-08-18 22:52:00
7:52 PM,62.1,57.9,86,30.16,10.0,Calm,Calm,-,N/A,,Clear,0,2013-08-18 23:52:00
8:52 PM,60.1,55.9,86,30.16,10.0,Calm,Calm,-,N/A,,Clear,0,2013-08-19 00:52:00
9:52 PM,57.0,54.0,89,30.15,10.0,Calm,Calm,-,N/A,,Clear,0,2013-08-19 01:52:00
10:52 PM,57.0,55.0,93,30.14,9.0,Calm,Calm,-,N/A,,Clear,0,2013-08-19 02:52:00
11:52 PM,55.9,53.1,90,30.13,8.0,Calm,Calm,-,N/A,,Clear,0,2013-08-19 03:52:00